Home > Weather > Le Havre > Past weeks

Flag for France Past Weather in Le Havre, Upper Normandy, France — Yesterday and Last 2 Weeks

Now
63 °F

Mostly cloudy.


Feels Like: 63 °F
Forecast: 58 / 69 °F
Wind: 12 mph from Southwest

Location: La Heve

Current Time: Jul 29, 2016 at 9:55:23 AM

Latest Report: Jul 29, 2016 at 9:30 AM


Visibility: N/A

Pressure: 29.95 "Hg

Humidity: 88%

Dew Point: 59 °F

Location of Le HavreLocation

Past Weather in Le Havre — Graph

°F

Le Havre Temperature Yesterday

Maximum temperature yesterday: 68 °F (at 3:00 PM)
Minimum temperature yesterday: 61 °F (at 6:30 AM)
Average temperature yesterday: 64 °F

High & Low Weather Summary for the Past Weeks

 TemperatureHumidityPressure
High97 °F (Jul 19, 6:00 PM)100% (Jul 22, 9:00 AM)30.39 "Hg (Jul 22, 9:00 AM)
Low57 °F (Jul 14, 8:00 AM)23% (Jul 19, 6:00 PM)29.80 "Hg (Jul 20, 4:00 AM)
Average65 °F79%30.14 "Hg
* Reported Jul 14 8:00 AM — Jul 29 8:30 AM, Le Havre, Weather by CustomWeather, © 2016

Note: Actual official high and low records may vary slightly from our data, if they occured in-between our weather recording intervals... More about our weather records

Advertising

Le Havre Weather History for the Previous 24 Hours

Scroll right to see more
 ConditionsComfort  
Time TempWeatherWind HumidityBarometerVisibility
8:30 AM
Fri, Jul 29
63 °FPartly sunny.15 mph88%29.95 "HgN/A
8:00 AM63 °FMostly cloudy.16 mph88%29.95 "HgN/A
7:30 AM63 °FMostly cloudy.16 mph88%29.95 "HgN/A
7:00 AM61 °FOvercast.14 mph94%29.95 "HgN/A
6:30 AM63 °FPassing clouds.13 mph94%29.95 "HgN/A
6:00 AM61 °FDrizzle. Fog.13 mph100%29.95 "Hg3 mi
5:30 AM63 °FMostly cloudy.14 mph94%29.95 "Hg6 mi
5:00 AM63 °FMostly cloudy.15 mph94%29.95 "HgN/A
4:30 AM63 °FMostly cloudy.10 mph94%29.95 "HgN/A
4:00 AM63 °FMostly cloudy.13 mph94%29.95 "HgN/A
3:30 AM63 °FMostly cloudy.13 mph94%29.95 "HgN/A
3:00 AM64 °FMostly cloudy.14 mph94%29.95 "HgN/A
2:30 AM64 °FLow clouds.13 mph94%29.95 "HgN/A
2:00 AM64 °FMostly cloudy.13 mph94%29.98 "HgN/A
1:30 AM64 °FLow clouds.12 mph94%29.98 "HgN/A
1:00 AM64 °FLow clouds.14 mph94%29.98 "HgN/A
12:30 AM64 °FLow clouds.14 mph94%29.98 "HgN/A
12:00 AM64 °FMostly cloudy.15 mph94%29.98 "HgN/A
11:30 PM
Thu, Jul 28
64 °FMostly cloudy.14 mph100%29.98 "HgN/A
11:00 PM64 °FDrizzle. Overcast.13 mph100%29.98 "HgN/A
10:30 PM64 °FMostly cloudy.7 mph94%29.98 "HgN/A
10:00 PM64 °FMostly cloudy.9 mph94%29.98 "HgN/A
9:30 PM64 °FDrizzle. Mostly cloudy.7 mph94%29.98 "HgN/A
9:00 PM64 °FMostly cloudy.7 mph94%30.01 "HgN/A
8:30 PM64 °FMostly cloudy.9 mph94%30.01 "Hg4 mi
8:00 PM64 °FDrizzle. Overcast.7 mph94%30.01 "HgN/A
7:30 PM66 °FOvercast.7 mph83%29.98 "HgN/A
7:00 PM66 °FOvercast.8 mph78%30.01 "HgN/A
6:30 PM66 °FOvercast.7 mph78%30.01 "HgN/A
6:00 PM66 °FMostly cloudy.8 mph78%30.01 "HgN/A
5:30 PM66 °FMostly cloudy.8 mph78%30.01 "HgN/A
5:00 PM66 °FMostly cloudy.10 mph78%30.04 "HgN/A
4:30 PM66 °FOvercast.13 mph78%30.04 "HgN/A
4:00 PM66 °FOvercast.10 mph78%30.04 "HgN/A
3:30 PM66 °FMostly cloudy.9 mph78%30.04 "HgN/A
3:00 PM68 °FMostly cloudy.9 mph69%30.04 "HgN/A
2:30 PM66 °FScattered clouds.9 mph73%30.04 "HgN/A
2:00 PM66 °FPassing clouds.8 mph73%30.04 "HgN/A
1:30 PM66 °FPassing clouds.9 mph73%30.04 "HgN/A
1:00 PM66 °FMild.10 mph73%30.04 "HgN/A
12:30 PM66 °FPassing clouds.12 mph73%30.07 "HgN/A
12:00 PM64 °FScattered clouds.13 mph78%30.07 "HgN/A
11:30 AM64 °FScattered clouds.12 mph73%30.07 "HgN/A
11:00 AM63 °FPartly sunny.13 mph77%30.07 "HgN/A
10:30 AM64 °FPartly sunny.14 mph73%30.04 "HgN/A
10:00 AM64 °FPartly sunny.14 mph68%30.04 "HgN/A
9:30 AM63 °FOvercast.13 mph73%30.04 "HgN/A
9:00 AM61 °FMostly cloudy.15 mph83%30.04 "HgN/A
Weather by CustomWeather, © 2016

See weather overviewHow to use our weather pages